Meteo pe oră la Dziekszyn

Astăzi, 7 Martie, Duminică

Timp Temperatura Precipitaţii Vânt Presiune Umiditate
00:00 -1°C° 0 mm 6 m/s 758 mmHg 82%
01:00 -1°C° 0 mm 7 m/s 758 mmHg 82%
02:00 -2°C° 0 mm 7 m/s 757 mmHg 81%
03:00 -2°C° 0 mm 7 m/s 756 mmHg 79%
04:00 -4°C° 0 mm 8 m/s 756 mmHg 78%
05:00 -4°C° 0 mm 8 m/s 755 mmHg 78%
06:00 -4°C° 0 mm 8 m/s 755 mmHg 78%
07:00 -4°C° 0 mm 8 m/s 755 mmHg 78%
08:00 -2°C° 0 mm 8 m/s 755 mmHg 78%
09:00 -2°C° 0 mm 8 m/s 754 mmHg 77%
10:00 -2°C° 0 mm 8 m/s 754 mmHg 77%
11:00 -1°C° 0 mm 8 m/s 754 mmHg 74%
12:00 -1°C° 0 mm 8 m/s 754 mmHg 71%
13:00 0°C° 0 mm 9 m/s 753 mmHg 68%
14:00 0°C° 0 mm 8 m/s 753 mmHg 71%
15:00 -1°C° 0 mm 8 m/s 753 mmHg 74%
16:00 -1°C° 0 mm 8 m/s 752 mmHg 77%
17:00 -1°C° 0.1 mm 7 m/s 752 mmHg 82%
18:00 -2°C° 0.1 mm 7 m/s 752 mmHg 87%
19:00 -2°C° 0.1 mm 6 m/s 752 mmHg 92%
20:00 -2°C° 0.6 mm 6 m/s 752 mmHg 93%
21:00 -2°C° 0.6 mm 5 m/s 752 mmHg 93%
22:00 -2°C° 0.6 mm 4 m/s 752 mmHg 94%
23:00 -2°C° 0.1 mm 3 m/s 752 mmHg 93%

Mâine, 8 Martie, Luni

Timp Temperatura Precipitaţii Vânt Presiune Umiditate
00:00 -4°C° 0.1 mm 3 m/s 753 mmHg 91%
01:00 -4°C° 0.1 mm 2 m/s 753 mmHg 89%
02:00 -4°C° 0 mm 2 m/s 753 mmHg 88%
03:00 -4°C° 0 mm 2 m/s 753 mmHg 86%
04:00 -4°C° 0 mm 2 m/s 753 mmHg 84%
05:00 -4°C° 0 mm 2 m/s 753 mmHg 81%
06:00 -4°C° 0 mm 2 m/s 754 mmHg 77%
07:00 -5°C° 0 mm 3 m/s 754 mmHg 73%
08:00 -2°C° 0 mm 3 m/s 755 mmHg 68%
09:00 -1°C° 0 mm 3 m/s 755 mmHg 64%
10:00 -1°C° 0 mm 4 m/s 756 mmHg 59%
11:00 0°C° 0 mm 4 m/s 756 mmHg 57%
12:00 +1°C° 0 mm 3 m/s 756 mmHg 56%
13:00 +2°C° 0 mm 3 m/s 756 mmHg 54%
14:00 +1°C° 0 mm 3 m/s 756 mmHg 55%
15:00 +1°C° 0 mm 3 m/s 756 mmHg 56%
16:00 +1°C° 0 mm 3 m/s 756 mmHg 57%
17:00 0°C° 0 mm 3 m/s 757 mmHg 63%
18:00 -1°C° 0 mm 3 m/s 757 mmHg 69%
19:00 -2°C° 0 mm 3 m/s 757 mmHg 75%
20:00 -3°C° 0 mm 2 m/s 757 mmHg 77%
21:00 -3°C° 0 mm 2 m/s 757 mmHg 78%
22:00 -3°C° 0 mm 2 m/s 758 mmHg 79%
23:00 -3°C° 0 mm 2 m/s 758 mmHg 79%

Poimâine, 9 Martie, Marţi

Timp Temperatura Precipitaţii Vânt Presiune Umiditate
00:00 -4°C° 0 mm 2 m/s 758 mmHg 78%
01:00 -2°C° 0 mm 1 m/s 758 mmHg 77%
02:00 -2°C° 0 mm 1 m/s 758 mmHg 77%
03:00 -2°C° 0 mm 1 m/s 757 mmHg 77%
04:00 -2°C° 0 mm 1 m/s 757 mmHg 76%
05:00 -2°C° 0 mm 1 m/s 757 mmHg 76%
06:00 -2°C° 0 mm 1 m/s 758 mmHg 75%
07:00 -1°C° 0 mm 1 m/s 758 mmHg 74%
08:00 -1°C° 0 mm 1 m/s 758 mmHg 69%
09:00 0°C° 0 mm 1 m/s 758 mmHg 63%
10:00 +1°C° 0 mm 1 m/s 758 mmHg 57%
11:00 +1°C° 0 mm 2 m/s 758 mmHg 53%
12:00 +1°C° 0 mm 2 m/s 758 mmHg 50%
13:00 +2°C° 0 mm 2 m/s 758 mmHg 46%
14:00 +2°C° 0 mm 2 m/s 758 mmHg 46%
15:00 +3°C° 0 mm 1 m/s 757 mmHg 46%
16:00 +3°C° 0 mm 1 m/s 757 mmHg 46%
17:00 +2°C° 0 mm 1 m/s 757 mmHg 52%
18:00 -2°C° 0 mm 2 m/s 757 mmHg 57%
19:00 -3°C° 0 mm 2 m/s 757 mmHg 63%
20:00 -3°C° 0 mm 2 m/s 757 mmHg 64%
21:00 -3°C° 0 mm 2 m/s 757 mmHg 65%
22:00 -3°C° 0 mm 2 m/s 758 mmHg 66%
23:00 -3°C° 0 mm 2 m/s 757 mmHg 65%

10 Martie, Miercuri

Timp Temperatura Precipitaţii Vânt Presiune Umiditate
00:00 -4°C° 0 mm 2 m/s 757 mmHg 65%
01:00 -4°C° 0 mm 2 m/s 757 mmHg 65%
02:00 -4°C° 0 mm 2 m/s 757 mmHg 65%
03:00 -4°C° 0 mm 2 m/s 757 mmHg 64%
04:00 -4°C° 0 mm 2 m/s 757 mmHg 64%
05:00 -4°C° 0 mm 2 m/s 757 mmHg 65%
06:00 -3°C° 0 mm 2 m/s 757 mmHg 65%
07:00 -3°C° 0 mm 2 m/s 757 mmHg 65%
08:00 -2°C° 0 mm 2 m/s 757 mmHg 60%
09:00 +1°C° 0 mm 2 m/s 757 mmHg 55%
10:00 +1°C° 0 mm 3 m/s 757 mmHg 50%
11:00 +2°C° 0 mm 3 m/s 757 mmHg 48%
12:00 +3°C° 0 mm 3 m/s 756 mmHg 46%
13:00 +4°C° 0 mm 4 m/s 756 mmHg 43%
14:00 +3°C° 0 mm 3 m/s 756 mmHg 46%
15:00 +3°C° 0 mm 3 m/s 755 mmHg 50%
16:00 +3°C° 0 mm 3 m/s 755 mmHg 53%
17:00 +2°C° 0 mm 3 m/s 754 mmHg 57%
18:00 +1°C° 0 mm 3 m/s 754 mmHg 61%
19:00 -1°C° 0 mm 4 m/s 754 mmHg 65%
20:00 -1°C° 0 mm 4 m/s 753 mmHg 67%
21:00 -1°C° 0 mm 4 m/s 753 mmHg 70%
22:00 -1°C° 0 mm 4 m/s 753 mmHg 72%
23:00 -1°C° 0 mm 5 m/s 752 mmHg 74%

11 Martie, Joi

Timp Temperatura Precipitaţii Vânt Presiune Umiditate
00:00 -1°C° 0 mm 5 m/s 751 mmHg 75%
01:00 -1°C° 0 mm 6 m/s 750 mmHg 77%
02:00 -1°C° 0 mm 6 m/s 749 mmHg 77%
03:00 -1°C° 0 mm 6 m/s 748 mmHg 77%
04:00 -1°C° 0 mm 6 m/s 747 mmHg 77%
05:00 -1°C° 0.2 mm 7 m/s 747 mmHg 78%
06:00 0°C° 0.2 mm 7 m/s 746 mmHg 79%
07:00 0°C° 0.2 mm 7 m/s 745 mmHg 80%
08:00 +1°C° 0.5 mm 8 m/s 744 mmHg 84%
09:00 +1°C° 0.5 mm 8 m/s 744 mmHg 87%
10:00 +1°C° 0.5 mm 8 m/s 743 mmHg 91%
11:00 +2°C° 0.1 mm 8 m/s 743 mmHg 87%
12:00 +5°C° 0.1 mm 8 m/s 742 mmHg 84%
13:00 +6°C° 0.1 mm 8 m/s 742 mmHg 80%
14:00 +6°C° 0.1 mm 8 m/s 741 mmHg 79%
15:00 +7°C° 0.1 mm 8 m/s 741 mmHg 77%
16:00 +7°C° 0.1 mm 8 m/s 740 mmHg 76%
17:00 +7°C° 0.2 mm 8 m/s 740 mmHg 78%
18:00 +7°C° 0.2 mm 8 m/s 740 mmHg 81%
19:00 +7°C° 0.2 mm 8 m/s 740 mmHg 84%
20:00 +6°C° 0.2 mm 7 m/s 740 mmHg 81%
21:00 +5°C° 0.2 mm 7 m/s 741 mmHg 79%
22:00 +4°C° 0.2 mm 6 m/s 741 mmHg 76%
23:00 +4°C° 0 mm 6 m/s 741 mmHg 78%

12 Martie, Vineri

Timp Temperatura Precipitaţii Vânt Presiune Umiditate
00:00 +4°C° 0 mm 6 m/s 741 mmHg 80%
01:00 +3°C° 0 mm 6 m/s 741 mmHg 82%
02:00 +3°C° 0 mm 7 m/s 741 mmHg 83%
03:00 +3°C° 0 mm 7 m/s 740 mmHg 84%
04:00 +3°C° 0 mm 7 m/s 740 mmHg 85%
05:00 +3°C° 0.1 mm 7 m/s 740 mmHg 84%
06:00 +3°C° 0.1 mm 7 m/s 740 mmHg 83%
07:00 +2°C° 0.1 mm 8 m/s 740 mmHg 83%
08:00 +3°C° 0.1 mm 9 m/s 740 mmHg 75%
09:00 +5°C° 0.1 mm 10 m/s 740 mmHg 67%
10:00 +6°C° 0.1 mm 11 m/s 740 mmHg 59%
11:00 +6°C° 0.1 mm 11 m/s 740 mmHg 59%
12:00 +5°C° 0.1 mm 12 m/s 740 mmHg 59%
13:00 +5°C° 0.1 mm 13 m/s 739 mmHg 59%
14:00 +5°C° 0 mm 12 m/s 740 mmHg 61%
15:00 +6°C° 0 mm 11 m/s 740 mmHg 62%
16:00 +6°C° 0 mm 11 m/s 740 mmHg 63%
17:00 +5°C° 0 mm 9 m/s 741 mmHg 65%
18:00 +4°C° 0 mm 8 m/s 741 mmHg 68%
19:00 +3°C° 0 mm 6 m/s 742 mmHg 71%
20:00 +3°C° 0 mm 6 m/s 742 mmHg 72%
21:00 +3°C° 0 mm 6 m/s 742 mmHg 73%
22:00 +2°C° 0 mm 6 m/s 743 mmHg 74%
23:00 +2°C° 0 mm 6 m/s 743 mmHg 76%
Arată mai mult

Formular de consimțământ

Meteoprog și furnizorii noștri de servicii pot stoca și accesa date personale, precum cookies, identificatori de dispozitiv sau alte tehnologii similare pe dispozitivul dumneavoastră și procesa astfel de date pentru a personaliza conținutul și reclamele, dar și pentru a oferi caracteristici de social media și pentru a analiza traficul.

  • Stocarea și/sau accesarea informațiilor pe dispozitivul dumneavoastră

    Cookies, identificatori de dispozitiv sau alte informații pot fi stocate sau accesate pe dispozitiv în scopurile indicate mai sus.

  • Reclame și conținut personalizat, evaluarea reclamelor și a conținutului, informații despre audiențe și dezvoltarea produselor

    Reclamele și conținutul pot fi personalizate pe baza unui profil. Pot fi adăugate date suplimentare pentru a personaliza mai bine reclamele și conținutul. Performanța reclamelor și conținutului poate fi măsurată. Pot fi obținute informații despre utilizatorii care au văzut reclamele și conținutul. Aceste date pot fi utilizate pentru a dezvolta sau îmbunătăți experiența utilizatorilor, sistemele și software-ul.

Dând clic pe ‘Sunt de acord’, permiteți utilizarea cookie-urilor menționate, a identificatorilor de dispozitiv, balizelor web sau altor tehnologii similare. Setările pot fi modificate din browser-ul dispozitivului dumneavoastră.

În anumite scopuri, interesele legitime pot prima asupra consimțământului. Puteți citi mai multe informații în acest sens în Politica privind Confidențialitatea Datelor și Cookie.